Location: Isola Pescaroli
(45.0500°N, 10.1667°E)
Time: 16:23:40
(UTC+00:00)

Cosmos 192 - Pass Details

Date: 03 March 2021
Orbit: 700 x 714 km, 74.0° (Epoch: 19 April)

Event Time Altitude Azimuth Distance (km) Brightness Sun altitude
Rises 19:14:18 0° 200° (SSW) 3,072 7.7 -22.7°
Reaches altitude 10° 19:16:36 10° 201° (SSW) 2,159 6.9 -23.1°
Maximum altitude 19:21:29 86° 289° (WNW) 710 4.2 -23.9°
Drops below altitude 10° 19:26:25 10° 20° (NNE) 2,181 6.8 -24.7°
Sets 19:28:45 0° 21° (NNE) 3,106 7.6 -25.1°
